EW6800 Weather Reports


Display with metric or nautical units.
time (UTC)temp
F
wind
direction
speed
MPH
gust
MPH
rain 1hr
in
rain 24hr
in
rain mn
in
humidity
%
barometer
mb
20260831065544 55 0 0.0 1.0 0.00 0.00 0.00 90 1013.3
20260831065044 54 0 0.0 1.0 0.00 0.00 0.00 90 1013.3
20260831064603 54 0 0.0 1.0 0.00 0.00 0.00 90 1013.3
20260831064047 54 0 0.0 2.0 0.00 0.00 0.00 90 1013.4
20260831063543 54 0 0.0 2.0 0.00 0.00 0.00 90 1013.4
20260831063059 54 0 1.0 2.0 0.00 0.00 0.00 90 1013.6
20260831062544 54 0 0.0 0.0 0.00 0.00 0.00 89 1013.6
20260831062044 54 0 0.0 0.0 0.00 0.00 0.00 89 1013.5
20260831061605 54 0 0.0 0.0 0.00 0.00 0.00 89 1013.6
20260831061046 54 0 0.0 1.0 0.00 0.00 0.00 88 1013.7
20260831060543 54 0 0.0 1.0 0.00 0.00 0.00 88 1013.7
20260831060059 55 0 0.0 3.0 0.00 0.00 0.00 88 1013.6
20260831055544 55 0 0.0 3.0 0.00 0.00 0.00 88 1013.6
20260831055044 55 144 2.0 3.0 0.00 0.00 0.00 87 1013.6
20260831054553 55 139 1.0 3.0 0.00 0.00 0.00 87 1013.6
20260831054044 55 0 1.0 3.0 0.00 0.00 0.00 86 1013.5
20260831053544 56 0 0.0 3.0 0.00 0.00 0.00 86 1013.5
20260831053102 56 131 1.0 3.0 0.00 0.00 0.00 85 1013.7
20260831052549 56 131 0.0 3.0 0.00 0.00 0.00 84 1013.7
20260831052044 57 0 0.0 4.0 0.00 0.00 0.00 84 1013.8
20260831051608 57 131 2.0 4.0 0.00 0.00 0.00 83 1013.7
20260831051043 57 124 2.0 3.0 0.00 0.00 0.00 83 1013.7
20260831050544 57 117 1.0 3.0 0.00 0.00 0.00 83 1013.7
20260831050059 57 117 1.0 3.0 0.00 0.00 0.00 83 1013.8
20260831045544 57 117 1.0 3.0 0.00 0.00 0.00 83 1013.8
20260831045044 58 0 2.0 3.0 0.00 0.00 0.00 83 1013.8
20260831044612 58 117 0.0 3.0 0.00 0.00 0.00 82 1013.8
20260831044045 58 0 0.0 3.0 0.00 0.00 0.00 82 1013.7
20260831043543 58 117 1.0 3.0 0.00 0.00 0.00 83 1013.8
20260831043059 58 0 0.0 2.0 0.00 0.00 0.00 82 1013.8
20260831042547 58 0 0.0 2.0 0.00 0.00 0.00 83 1013.8
20260831042047 57 0 0.0 2.0 0.00 0.00 0.00 83 1013.8
20260831041600 57 0 0.0 0.0 0.00 0.00 0.00 83 1013.7
20260831041043 57 0 0.0 0.0 0.00 0.00 0.00 84 1013.7
20260831040543 57 0 0.0 0.0 0.00 0.00 0.00 85 1013.7
20260831040109 57 0 0.0 0.0 0.00 0.00 0.00 85 1013.6
20260831035543 57 0 0.0 0.0 0.00 0.00 0.00 85 1013.6
20260831035043 57 0 0.0 0.0 0.00 0.00 0.00 86 1013.5
20260831034559 57 0 0.0 1.0 0.00 0.00 0.00 86 1013.5
20260831034043 57 0 0.0 1.0 0.00 0.00 0.00 86 1013.4
20260831033543 57 0 0.0 1.0 0.00 0.00 0.00 86 1013.5
20260831033100 57 0 0.0 1.0 0.00 0.00 0.00 86 1013.3
20260831032544 57 0 0.0 1.0 0.00 0.00 0.00 87 1013.3
20260831032048 56 0 0.0 1.0 0.00 0.00 0.00 87 1013.3
20260831031602 56 0 0.0 0.0 0.00 0.00 0.00 87 1013.3
20260831031043 56 0 0.0 0.0 0.00 0.00 0.00 87 1013.3
20260831030544 56 0 0.0 0.0 0.00 0.00 0.00 87 1013.3
20260831025544 56 0 0.0 2.0 0.00 0.00 0.00 85 1013.3
20260831025051 56 314 1.0 2.0 0.00 0.00 0.00 84 1013.3
20260831024601 57 0 0.0 2.0 0.00 0.00 0.00 84 1013.2
20260831024043 57 307 1.0 3.0 0.00 0.00 0.00 83 1013.2
20260831023547 58 306 1.0 3.0 0.00 0.00 0.00 82 1013.3
20260831023103 58 313 0.0 3.0 0.00 0.00 0.00 81 1013.3
20260831022543 59 311 0.0 2.0 0.00 0.00 0.00 81 1013.3
20260831022043 59 306 0.0 3.0 0.00 0.00 0.00 80 1013.3
20260831021551 59 0 0.0 3.0 0.00 0.00 0.00 79 1013.3
20260831021044 60 304 1.0 3.0 0.00 0.00 0.00 79 1013.2
20260831020547 60 300 1.0 4.0 0.00 0.00 0.00 78 1013.2
20260831015543 61 302 2.0 5.0 0.00 0.00 0.00 77 1013.3
20260831015043 61 305 2.0 4.0 0.00 0.00 0.00 76 1013.2
20260831014557 62 294 2.0 5.0 0.00 0.00 0.00 76 1013.2
20260831014043 62 302 2.0 5.0 0.00 0.00 0.00 75 1013.3
20260831013543 62 313 2.0 4.0 0.00 0.00 0.00 74 1013.3
20260831013108 63 313 2.0 5.0 0.00 0.00 0.00 73 1013.3
20260831012546 63 308 2.0 5.0 0.00 0.00 0.00 73 1013.3
20260831012046 64 305 2.0 5.0 0.00 0.00 0.00 72 1013.4
20260831011603 64 305 2.0 4.0 0.00 0.00 0.00 72 1013.4
20260831011048 64 304 1.0 4.0 0.00 0.00 0.00 71 1013.4
20260831010545 64 304 2.0 5.0 0.00 0.00 0.00 71 1013.5
20260831010058 65 303 3.0 6.0 0.00 0.00 0.00 70 1013.5
20260831005543 65 311 3.0 7.0 0.00 0.00 0.00 70 1013.5
20260831005044 66 303 3.0 7.0 0.00 0.00 0.00 69 1013.4
20260831004555 66 296 3.0 7.0 0.00 0.00 0.00 68 1013.5
20260831004044 66 296 3.0 7.0 0.00 0.00 0.00 67 1013.4
20260831003543 67 296 3.0 7.0 0.00 0.00 0.00 68 1013.4
20260831003104 67 306 4.0 7.0 0.00 0.00 0.00 67 1013.5
20260831002543 67 311 3.0 7.0 0.00 0.00 0.00 66 1013.5
20260831002045 67 298 3.0 7.0 0.00 0.00 0.00 66 1013.6
20260831001600 68 309 3.0 7.0 0.00 0.00 0.00 66 1013.6
20260831001043 68 301 3.0 7.0 0.00 0.00 0.00 65 1013.6
20260831000543 68 308 3.0 7.0 0.00 0.00 0.00 65 1013.7
20260831000106 68 302 3.0 7.0 0.00 0.00 0.00 66 1013.6
20260830235543 68 301 3.0 6.0 0.00 0.00 0.00 66 1013.6
20260830235046 68 298 3.0 7.0 0.00 0.00 0.00 65 1013.6
20260830234600 69 301 4.0 7.0 0.00 0.00 0.00 64 1013.7
20260830234043 69 304 3.0 5.0 0.00 0.00 0.00 64 1013.7
20260830233543 69 294 3.0 7.0 0.00 0.00 0.00 63 1013.6
20260830233103 69 302 3.0 7.0 0.00 0.00 0.00 63 1013.7
20260830232542 69 315 4.0 7.0 0.00 0.00 0.00 63 1013.6
20260830232046 69 304 3.0 7.0 0.00 0.00 0.00 63 1013.7
20260830231606 69 313 2.0 8.0 0.00 0.00 0.00 62 1013.8
20260830231045 70 300 4.0 8.0 0.00 0.00 0.00 62 1013.7
20260830230544 70 306 4.0 8.0 0.00 0.00 0.00 61 1013.7
20260830230052 70 315 5.0 8.0 0.00 0.00 0.00 61 1013.7
20260830225544 70 296 3.0 8.0 0.00 0.00 0.00 62 1013.8
20260830225046 70 304 4.0 8.0 0.00 0.00 0.00 61 1013.8
20260830224600 71 296 4.0 7.0 0.00 0.00 0.00 60 1013.9
20260830224044 71 317 4.0 7.0 0.00 0.00 0.00 60 1013.9
20260830223544 71 317 3.0 7.0 0.00 0.00 0.00 60 1013.9
20260830223110 71 312 3.0 7.0 0.00 0.00 0.00 60 1013.9
20260830222546 71 313 3.0 7.0 0.00 0.00 0.00 60 1014.0
20260830222044 71 302 3.0 7.0 0.00 0.00 0.00 61 1014.0
20260830221553 70 303 1.0 6.0 0.00 0.00 0.00 62 1014.0
20260830221044 70 303 3.0 7.0 0.00 0.00 0.00 61 1014.0
20260830220544 70 311 4.0 7.0 0.00 0.00 0.00 61 1014.0
20260830220050 70 299 3.0 8.0 0.00 0.00 0.00 61 1014.1
20260830215545 70 296 3.0 8.0 0.00 0.00 0.00 61 1014.3
20260830215045 70 292 3.0 8.0 0.00 0.00 0.00 61 1014.4
20260830214615 70 304 4.0 8.0 0.00 0.00 0.00 60 1014.4
20260830214045 71 297 4.0 8.0 0.00 0.00 0.00 60 1014.5
20260830213544 71 318 3.0 7.0 0.00 0.00 0.00 59 1014.6
20260830213102 71 310 3.0 7.0 0.00 0.00 0.00 58 1014.8
20260830212544 72 307 2.0 5.0 0.00 0.00 0.00 57 1014.7
20260830212045 73 311 2.0 5.0 0.00 0.00 0.00 56 1014.8
20260830211607 73 278 1.0 3.0 0.00 0.00 0.00 56 1015.0
20260830211045 73 296 2.0 5.0 0.00 0.00 0.00 56 1014.9
20260830210544 73 0 0.0 5.0 0.00 0.00 0.00 55 1014.9
20260830210117 74 15 0.0 2.0 0.00 0.00 0.00 55 1014.9
20260830205546 74 0 0.0 3.0 0.00 0.00 0.00 55 1015.0
20260830205046 73 0 0.0 4.0 0.00 0.00 0.00 57 1015.1
20260830204600 73 348 2.0 4.0 0.00 0.00 0.00 56 1014.9
20260830204044 73 0 0.0 3.0 0.00 0.00 0.00 56 1014.9
20260830203544 71 351 0.0 3.0 0.00 0.00 0.00 59 1015.0
20260830203053 71 0 0.0 5.0 0.00 0.00 0.00 59 1015.0
20260830202544 69 351 2.0 5.0 0.00 0.00 0.00 60 1015.0
20260830202044 69 330 1.0 4.0 0.00 0.00 0.00 62 1015.0
20260830201605 69 335 2.0 4.0 0.00 0.00 0.00 62 1015.0
20260830201044 69 327 1.0 4.0 0.00 0.00 0.00 62 1015.0
20260830200546 69 336 1.0 4.0 0.00 0.00 0.00 61 1015.1
20260830200104 68 0 0.0 4.0 0.00 0.00 0.00 63 1015.1
20260830195543 68 0 0.0 5.0 0.00 0.00 0.00 64 1015.1
20260830195045 68 323 1.0 5.0 0.00 0.00 0.00 65 1015.2
20260830194553 68 299 1.0 4.0 0.00 0.00 0.00 64 1015.2
20260830194043 67 305 1.0 3.0 0.00 0.00 0.00 65 1015.4
20260830193543 67 304 1.0 4.0 0.00 0.00 0.00 65 1015.3
20260830193050 67 338 0.0 5.0 0.00 0.00 0.00 65 1015.3
20260830192543 67 338 1.0 5.0 0.00 0.00 0.00 65 1015.4
20260830192043 66 296 1.0 3.0 0.00 0.00 0.00 67 1015.4
20260830191559 66 310 1.0 4.0 0.00 0.00 0.00 67 1015.5
20260830191043 65 309 1.0 4.0 0.00 0.00 0.00 66 1015.4
20260830190545 65 309 2.0 4.0 0.00 0.00 0.00 66 1015.4
20260830190126 65 311 1.0 5.0 0.00 0.00 0.00 66 1015.5
20260830185543 65 242 2.0 5.0 0.00 0.00 0.00 67 1015.4
20260830185045 64 322 1.0 3.0 0.00 0.00 0.00 68 1015.4
20260830184628 64 321 1.0 4.0 0.00 0.00 0.00 69 1015.5
20260830184043 63 318 1.0 5.0 0.00 0.00 0.00 69 1015.5
20260830183543 63 318 3.0 5.0 0.00 0.00 0.00 68 1015.5
20260830183114 63 327 1.0 5.0 0.00 0.00 0.00 67 1015.4
20260830182543 62 315 2.0 5.0 0.00 0.00 0.00 68 1015.4
20260830182042 62 322 2.0 5.0 0.00 0.00 0.00 67 1015.5
20260830181559 62 331 2.0 5.0 0.00 0.00 0.00 71 1015.4
20260830181044 61 294 1.0 5.0 0.00 0.00 0.00 71 1015.4
20260830180543 61 329 2.0 5.0 0.00 0.00 0.00 71 1015.4
20260830175543 60 319 1.0 4.0 0.00 0.00 0.00 74 1015.5
20260830175045 59 319 2.0 4.0 0.00 0.00 0.00 74 1015.5
20260830174603 59 317 2.0 4.0 0.00 0.00 0.00 75 1015.4
20260830174044 58 317 2.0 4.0 0.00 0.00 0.00 77 1015.5
20260830173544 58 318 2.0 4.0 0.00 0.00 0.00 79 1015.5
20260830173055 57 317 2.0 4.0 0.00 0.00 0.00 79 1015.5
20260830172543 57 317 2.0 5.0 0.00 0.00 0.00 79 1015.5
20260830172043 57 323 2.0 5.0 0.00 0.00 0.00 80 1015.4
20260830171559 56 309 2.0 4.0 0.00 0.00 0.00 82 1015.4
20260830171042 55 310 2.0 5.0 0.00 0.00 0.00 85 1015.4
20260830170543 55 310 2.0 5.0 0.00 0.00 0.00 85 1015.4
20260830170053 54 310 3.0 5.0 0.00 0.00 0.00 86 1015.3
20260830165545 54 313 3.0 5.0 0.00 0.00 0.00 87 1015.3
20260830165043 54 317 2.0 6.0 0.00 0.00 0.00 87 1015.3
20260830164604 53 311 2.0 9.0 0.00 0.00 0.00 87 1015.3
20260830164045 53 313 4.0 9.0 0.00 0.00 0.00 88 1015.2
20260830163543 53 311 3.0 8.0 0.00 0.00 0.00 89 1015.2
20260830163051 53 312 3.0 8.0 0.00 0.00 0.00 90 1015.2
20260830162542 52 317 3.0 8.0 0.00 0.00 0.00 90 1015.3
20260830162046 52 323 3.0 7.0 0.00 0.00 0.00 91 1015.3
20260830161552 52 323 2.0 5.0 0.00 0.00 0.00 93 1015.2
20260830161042 52 320 3.0 5.0 0.00 0.00 0.00 93 1015.3
20260830160542 51 316 2.0 5.0 0.00 0.00 0.00 94 1015.4
20260830155543 51 327 2.0 4.0 0.00 0.00 0.00 95 1015.3
20260830155043 51 317 2.0 5.0 0.00 0.00 0.00 95 1015.4
20260830154557 51 317 2.0 6.0 0.00 0.00 0.00 95 1015.4
20260830154045 50 319 3.0 6.0 0.00 0.00 0.00 95 1015.4
20260830153543 50 318 2.0 6.0 0.00 0.00 0.00 95 1015.4
20260830153113 50 309 3.0 6.0 0.00 0.00 0.00 95 1015.4
20260830152543 50 311 3.0 6.0 0.00 0.00 0.00 95 1015.5
20260830152043 50 313 2.0 6.0 0.00 0.00 0.00 95 1015.4
20260830151601 50 304 2.0 8.0 0.00 0.00 0.00 95 1015.4
20260830151043 50 304 3.0 8.0 0.00 0.00 0.00 95 1015.4
20260830150544 50 306 3.0 5.0 0.00 0.00 0.00 95 1015.3
20260830150106 50 313 2.0 9.0 0.00 0.00 0.00 95 1015.4
20260830145547 49 320 3.0 9.0 0.00 0.00 0.00 95 1015.3
20260830145044 49 312 3.0 9.0 0.00 0.00 0.00 95 1015.3
20260830144554 49 309 5.0 9.0 0.00 0.00 0.00 95 1015.2
20260830144043 49 311 4.0 9.0 0.00 0.00 0.00 95 1015.2
20260830143545 49 329 5.0 9.0 0.00 0.00 0.00 95 1015.2
20260830143108 49 312 5.0 9.0 0.00 0.00 0.00 95 1015.2
20260830142546 49 300 4.0 9.0 0.00 0.00 0.00 95 1015.2
20260830142041 49 316 5.0 9.0 0.00 0.00 0.00 94 1015.2
20260830141603 49 317 4.0 8.0 0.00 0.00 0.00 94 1015.1
20260830141044 49 312 4.0 8.0 0.00 0.00 0.00 94 1015.1
20260830140545 49 318 3.0 7.0 0.00 0.00 0.00 94 1015.0
20260830140057 49 315 4.0 8.0 0.00 0.00 0.00 94 1015.0
20260830135543 49 310 4.0 8.0 0.00 0.00 0.00 94 1014.9
20260830135043 49 317 5.0 8.0 0.00 0.00 0.00 94 1015.0
20260830134600 49 309 3.0 8.0 0.00 0.00 0.00 94 1014.7
20260830134043 49 311 5.0 9.0 0.00 0.00 0.00 94 1014.7
20260830133544 49 307 6.0 9.0 0.00 0.00 0.00 94 1014.6
20260830133102 49 317 6.0 10.0 0.00 0.00 0.00 94 1014.5
20260830132542 49 317 7.0 10.0 0.00 0.00 0.00 93 1014.4
20260830132043 49 294 8.0 10.0 0.00 0.00 0.00 93 1014.4
20260830131558 49 298 7.0 10.0 0.00 0.00 0.00 93 1014.4
20260830131044 49 317 6.0 10.0 0.00 0.00 0.00 92 1014.4
20260830130600 50 309 4.0 8.0 0.00 0.00 0.00 92 1014.3
20260830130056 50 309 5.0 8.0 0.00 0.00 0.00 91 1014.3
20260830125545 51 314 4.0 8.0 0.00 0.00 0.00 91 1014.4
20260830125043 50 315 4.0 8.0 0.00 0.00 0.00 93 1014.3
20260830124550 50 315 5.0 8.0 0.00 0.00 0.00 94 1014.2
20260830124044 50 319 5.0 8.0 0.00 0.00 0.00 95 1014.2
20260830123544 49 319 5.0 8.0 0.00 0.00 0.00 95 1014.3
20260830123101 49 320 4.0 6.0 0.00 0.00 0.00 95 1014.3
20260830122543 49 322 4.0 5.0 0.00 0.00 0.00 94 1014.4
20260830122043 49 322 3.0 5.0 0.00 0.00 0.00 94 1014.2
20260830121558 49 322 3.0 5.0 0.00 0.00 0.00 94 1014.2
20260830121043 49 319 3.0 5.0 0.00 0.00 0.00 94 1014.2
20260830120543 49 319 3.0 5.0 0.00 0.00 0.00 94 1014.2
20260830115544 49 314 2.0 5.0 0.00 0.00 0.00 94 1014.4
20260830115047 49 314 3.0 5.0 0.00 0.00 0.00 94 1014.3
20260830114602 49 311 3.0 5.0 0.00 0.00 0.00 94 1014.3
20260830114043 49 311 3.0 4.0 0.00 0.00 0.00 94 1014.3
20260830113545 49 311 1.0 4.0 0.00 0.00 0.00 94 1014.3
20260830113106 49 311 2.0 4.0 0.00 0.00 0.00 94 1014.3
20260830112543 49 311 2.0 5.0 0.00 0.00 0.00 94 1014.4
20260830112043 49 311 2.0 7.0 0.00 0.00 0.00 94 1014.3
20260830111600 49 294 3.0 7.0 0.00 0.00 0.00 94 1014.3
20260830111044 49 304 2.0 5.0 0.00 0.00 0.00 94 1014.3
20260830110543 49 311 3.0 5.0 0.00 0.00 0.00 94 1014.2
20260830110056 49 302 3.0 5.0 0.00 0.00 0.00 94 1014.2
20260830105546 49 316 2.0 5.0 0.00 0.00 0.00 94 1014.1
20260830105042 49 311 3.0 7.0 0.00 0.00 0.00 93 1014.2
20260830104612 49 313 3.0 7.0 0.00 0.00 0.00 93 1014.1
20260830104043 50 312 3.0 7.0 0.00 0.00 0.00 93 1014.3
20260830103546 50 320 3.0 8.0 0.00 0.00 0.00 93 1014.2
20260830103059 50 313 3.0 9.0 0.00 0.00 0.00 93 1014.2
20260830102542 50 320 5.0 9.0 0.00 0.00 0.00 93 1014.2
20260830102047 50 304 5.0 9.0 0.00 0.00 0.00 92 1014.2
20260830101553 50 306 4.0 8.0 0.00 0.00 0.00 92 1014.1
20260830101043 50 321 4.0 9.0 0.00 0.00 0.00 92 1014.2
20260830100545 50 329 4.0 9.0 0.00 0.00 0.00 92 1014.2
20260830100233 50 318 6.0 10.0 0.00 0.00 0.00 91 1014.3
20260830095544 51 315 5.0 10.0 0.00 0.00 0.00 91 1014.3
20260830095043 51 315 7.0 10.0 0.00 0.00 0.00 91 1014.3
20260830094558 51 317 6.0 9.0 0.00 0.00 0.00 90 1014.2
20260830094042 51 309 6.0 10.0 0.00 0.00 0.00 90 1014.3
20260830093542 51 297 6.0 10.0 0.00 0.00 0.00 90 1014.3
20260830093103 51 311 6.0 9.0 0.00 0.00 0.00 90 1014.3
20260830092546 51 313 6.0 10.0 0.00 0.00 0.00 90 1014.3
20260830092043 51 305 7.0 11.0 0.00 0.00 0.00 90 1014.3
20260830091558 51 336 7.0 11.0 0.00 0.00 0.00 89 1014.4
20260830091043 51 319 8.0 10.0 0.00 0.00 0.00 90 1014.4
20260830090544 51 309 7.0 10.0 0.00 0.00 0.00 90 1014.5
20260830090055 51 298 6.0 10.0 0.00 0.00 0.00 91 1014.5
20260830085542 51 303 6.0 11.0 0.00 0.00 0.00 91 1014.5
20260830085042 51 318 6.0 11.0 0.00 0.00 0.00 91 1014.6
20260830084559 51 300 8.0 11.0 0.00 0.00 0.00 91 1014.7
20260830084046 51 305 7.0 11.0 0.00 0.00 0.00 90 1014.8
20260830083546 51 315 7.0 11.0 0.00 0.00 0.00 90 1014.8
20260830083104 51 305 7.0 11.0 0.00 0.00 0.00 89 1014.8
20260830082542 52 319 6.0 11.0 0.00 0.00 0.00 88 1014.8
20260830082042 52 297 7.0 10.0 0.00 0.00 0.00 88 1015.0
20260830081609 52 303 7.0 11.0 0.00 0.00 0.00 88 1015.0
20260830081044 52 302 7.0 12.0 0.00 0.00 0.00 88 1014.9
20260830080544 52 315 7.0 12.0 0.00 0.00 0.00 88 1015.0
20260830075543 51 310 8.0 11.0 0.00 0.00 0.00 89 1015.0
20260830075048 51 309 8.0 11.0 0.00 0.00 0.00 89 1015.0
20260830074559 51 308 8.0 11.0 0.00 0.00 0.00 89 1015.0
20260830074045 51 307 8.0 11.0 0.00 0.00 0.00 89 1014.9
20260830073547 52 293 7.0 12.0 0.00 0.00 0.00 89 1014.8
20260830073107 52 313 8.0 13.0 0.00 0.00 0.00 89 1014.8
20260830072545 52 315 9.0 13.0 0.00 0.00 0.00 89 1014.9
20260830072045 52 313 9.0 13.0 0.00 0.00 0.00 89 1014.9
20260830071558 52 315 8.0 14.0 0.00 0.00 0.00 89 1014.9
20260830071048 52 298 10.0 14.0 0.00 0.00 0.00 88 1015.0
20260830070544 52 317 10.0 14.0 0.00 0.00 0.00 88 1014.9